Location: Dumpton Point
(51.3500°N, 1.4433°E)
Time: 05:28:11
(UTC+00:00)

A-11 Canister half - Visible Passes

Search period start: 14 April 2021 00:00
Search period end: 24 April 2021 00:00
Orbit: 1525 x 1683 km, 47.3° (Epoch: 12 April)

Date Brightness Start Highest point End Pass type
(mag) Time Alt. Az. Time Alt. Az. Time Alt. Az.
14 Apr 10.3 00:08:56 10° W 00:13:58 21° WSW 00:13:58 21° WSW visible
14 Apr 9.2 19:36:30 10° W 19:46:37 72° S 19:56:37 10° E visible
14 Apr 9.3 21:41:26 10° W 21:51:10 54° SSW 21:55:00 37° SSE visible
14 Apr 10.2 23:47:08 10° W 23:53:16 24° WSW 23:53:16 24° WSW visible
15 Apr 9.3 19:14:50 10° W 19:24:56 72° S 19:34:57 10° E visible
15 Apr 9.3 21:19:44 10° W 21:29:31 55° SSW 21:34:19 32° SE visible
15 Apr 10.1 23:25:21 10° W 23:32:36 26° SW 23:32:36 26° SW visible
16 Apr 9.3 20:58:02 10° W 21:07:52 57° SSW 21:13:40 27° SE visible
16 Apr 10.0 23:03:34 10° W 23:11:28 27° SW 23:11:57 27° SW visible
17 Apr 9.3 20:36:21 10° W 20:46:13 58° SSW 20:53:01 22° SE visible
17 Apr 10.0 22:41:49 10° W 22:49:52 28° SW 22:51:18 27° SSW visible
18 Apr 9.4 20:14:39 10° W 20:24:33 59° SSW 20:32:25 17° SE visible
18 Apr 10.0 22:20:03 10° W 22:28:16 29° SW 22:30:42 27° SSW visible
19 Apr 9.4 19:52:58 10° W 20:02:54 60° SSW 20:11:50 13° SE visible
19 Apr 10.0 21:58:18 10° W 22:06:40 31° SW 22:10:07 25° SSW visible
20 Apr 9.4 19:31:17 10° W 19:41:14 61° SSW 19:51:04 10° ESE visible
20 Apr 10.0 21:36:33 10° W 21:45:04 32° SW 21:49:34 23° S visible
21 Apr 10.0 21:14:49 10° W 21:23:28 33° SW 21:29:02 20° S visible
22 Apr 10.0 20:53:06 10° W 21:01:51 35° SW 21:08:33 17° SSE visible
23 Apr 10.0 20:31:22 10° W 20:40:14 36° SW 20:48:06 13° SSE visible
23 Apr 10.9 22:40:50 10° WSW 22:42:50 11° WSW 22:44:51 10° SW visible
